JST7345 YWLM-YSSY

Flight info

Callsign JST7345
Flight time 0h 30m
Altitude 16000
Route MONDO DCT BOREE
Aircraft A320/M-SDE3FGHIRWY/LB1

Departure

Time 2026-04-26 03:44
Airport Newcastle Airport (YWLM)

Arrival

Time 2026-04-26 04:14
Airport Sydney Kingsford Smith International Airport (YSSY)
Time Latitude Longitude Altitude Speed Heading
2026-04-26 03:27 -32.80373 151.84029 29 ft 0 kts 252°
2026-04-26 03:35 -32.80372 151.84034 29 ft 2 kts 252°
2026-04-26 03:35 -32.80366 151.84056 28 ft 3 kts 258°
2026-04-26 03:36 -32.80363 151.84080 28 ft 3 kts 263°
2026-04-26 03:36 -32.80361 151.84098 27 ft 1 kts 263°
2026-04-26 03:36 -32.80361 151.84102 27 ft 0 kts 263°
2026-04-26 03:38 -32.80360 151.84096 27 ft 4 kts 280°
2026-04-26 03:39 -32.80303 151.84009 29 ft 19 kts 310°
2026-04-26 03:39 -32.80208 151.83884 30 ft 22 kts 313°
2026-04-26 03:39 -32.80076 151.83828 32 ft 20 kts 12°
2026-04-26 03:39 -32.79932 151.83854 33 ft 22 kts 10°
2026-04-26 03:40 -32.79804 151.83947 34 ft 21 kts 54°
2026-04-26 03:40 -32.79727 151.83959 33 ft 12 kts 313°
2026-04-26 03:40 -32.79663 151.83872 31 ft 15 kts 310°
2026-04-26 03:40 -32.79586 151.83765 31 ft 19 kts 310°
2026-04-26 03:41 -32.79493 151.83634 29 ft 23 kts 310°
2026-04-26 03:41 -32.79389 151.83487 30 ft 25 kts 310°
2026-04-26 03:41 -32.79272 151.83326 33 ft 26 kts 310°
2026-04-26 03:41 -32.79150 151.83156 33 ft 28 kts 310°
2026-04-26 03:42 -32.79017 151.82970 33 ft 31 kts 310°
2026-04-26 03:42 -32.78868 151.82762 31 ft 35 kts 310°
2026-04-26 03:42 -32.78790 151.82603 29 ft 17 kts 253°
2026-04-26 03:42 -32.78866 151.82526 26 ft 13 kts 205°
2026-04-26 03:43 -32.78922 151.82554 27 ft 14 kts 131°
2026-04-26 03:43 -32.79119 151.82827 31 ft 79 kts 130°
2026-04-26 03:43 -32.79610 151.83510 28 ft 136 kts 130°
2026-04-26 03:43 -32.80280 151.84443 429 ft 149 kts 134°
2026-04-26 03:44 -32.80957 151.85379 1114 ft 150 kts 128°
2026-04-26 03:44 -32.81637 151.86318 1769 ft 151 kts 127°
2026-04-26 03:44 -32.82363 151.87327 2158 ft 171 kts 128°
2026-04-26 03:44 -32.83188 151.88474 2462 ft 194 kts 128°
2026-04-26 03:45 -32.84285 151.89569 2768 ft 224 kts 155°
2026-04-26 03:45 -32.85900 151.89619 3357 ft 246 kts 198°
2026-04-26 03:45 -32.87265 151.88412 4160 ft 256 kts 237°
2026-04-26 03:45 -32.87789 151.86425 5062 ft 255 kts 275°
2026-04-26 03:46 -32.87476 151.84365 6031 ft 253 kts 289°
2026-04-26 03:46 -32.86946 151.82352 6959 ft 257 kts 289°
2026-04-26 03:46 -32.86402 151.80310 7797 ft 262 kts 290°
2026-04-26 03:47 -32.85156 151.76118 9434 ft 274 kts 297°
2026-04-26 03:47 -32.84162 151.74129 10010 ft 290 kts 309°
2026-04-26 03:47 -32.82829 151.72227 10474 ft 308 kts 311°
2026-04-26 03:47 -32.81376 151.70221 10764 ft 331 kts 312°
2026-04-26 03:48 -32.79901 151.68051 11293 ft 343 kts 303°
2026-04-26 03:48 -32.78961 151.65417 11970 ft 352 kts 283°
2026-04-26 03:48 -32.78822 151.62515 12742 ft 355 kts 263°
2026-04-26 03:48 -32.79520 151.59712 13584 ft 356 kts 245°
2026-04-26 03:49 -32.80602 151.57065 14375 ft 357 kts 244°
2026-04-26 03:49 -32.81706 151.54400 15039 ft 361 kts 243°
2026-04-26 03:49 -32.82819 151.51716 15722 ft 363 kts 243°
2026-04-26 03:49 -32.83940 151.49005 16111 ft 368 kts 243°
2026-04-26 03:50 -32.85068 151.46272 16228 ft 369 kts 243°
2026-04-26 03:50 -32.86197 151.43525 16244 ft 370 kts 243°
2026-04-26 03:50 -32.87326 151.40767 16253 ft 371 kts 243°
2026-04-26 03:50 -32.88458 151.38014 16246 ft 371 kts 243°
2026-04-26 03:51 -32.89577 151.35292 16254 ft 371 kts 244°
2026-04-26 03:51 -32.90707 151.32540 16243 ft 370 kts 244°
2026-04-26 03:51 -32.91836 151.29785 16245 ft 371 kts 243°
2026-04-26 03:51 -32.93009 151.27010 16240 ft 370 kts 239°
2026-04-26 03:52 -32.94478 151.24556 16254 ft 369 kts 227°
2026-04-26 03:52 -32.96361 151.22482 16252 ft 369 kts 215°
2026-04-26 03:52 -32.98545 151.20897 16247 ft 368 kts 207°
2026-04-26 03:52 -33.00798 151.19445 16260 ft 368 kts 207°
2026-04-26 03:53 -33.03049 151.17982 16252 ft 369 kts 207°
2026-04-26 03:53 -33.05299 151.16510 16255 ft 369 kts 207°
2026-04-26 03:53 -33.07542 151.15037 16257 ft 369 kts 208°
2026-04-26 03:53 -33.09791 151.13561 16259 ft 369 kts 208°
2026-04-26 03:54 -33.12042 151.12086 16266 ft 369 kts 208°
2026-04-26 03:54 -33.14288 151.10611 16267 ft 369 kts 207°
2026-04-26 03:54 -33.16577 151.09109 16264 ft 392 kts 207°
2026-04-26 03:54 -33.19073 151.07474 16251 ft 426 kts 208°
2026-04-26 03:55 -33.21746 151.05829 16235 ft 426 kts 201°
2026-04-26 03:55 -33.24526 151.04985 16174 ft 401 kts 185°
2026-04-26 03:55 -33.27193 151.05052 15981 ft 368 kts 171°
2026-04-26 03:55 -33.29662 151.05511 15392 ft 352 kts 170°
2026-04-26 03:56 -33.32054 151.05969 14668 ft 344 kts 171°
2026-04-26 03:56 -33.34364 151.06416 14272 ft 328 kts 171°
2026-04-26 03:56 -33.36598 151.06576 14003 ft 321 kts 179°
2026-04-26 03:56 -33.38833 151.06612 13737 ft 321 kts 179°
2026-04-26 03:57 -33.41068 151.06654 13477 ft 321 kts 178°
2026-04-26 03:57 -33.43287 151.06698 13212 ft 318 kts 179°
2026-04-26 03:57 -33.45490 151.06738 12961 ft 316 kts 178°
2026-04-26 03:57 -33.47662 151.06773 12707 ft 315 kts 179°
2026-04-26 03:58 -33.49852 151.06807 12451 ft 314 kts 178°
2026-04-26 03:58 -33.52031 151.06843 12199 ft 313 kts 178°
2026-04-26 03:58 -33.54204 151.06879 11949 ft 312 kts 178°
2026-04-26 03:58 -33.56372 151.06912 11706 ft 311 kts 179°
2026-04-26 03:59 -33.58533 151.06944 11460 ft 310 kts 178°
2026-04-26 03:59 -33.60684 151.06976 11216 ft 309 kts 179°
2026-04-26 03:59 -33.62828 151.07010 10974 ft 308 kts 178°
2026-04-26 03:59 -33.64962 151.07043 10734 ft 306 kts 179°
2026-04-26 04:00 -33.67082 151.07078 10495 ft 304 kts 179°
2026-04-26 04:00 -33.69191 151.07112 10257 ft 303 kts 178°
2026-04-26 04:00 -33.71296 151.07147 10011 ft 302 kts 178°
2026-04-26 04:00 -33.73369 151.07179 9828 ft 294 kts 178°
2026-04-26 04:01 -33.74714 151.07199 9744 ft 291 kts 178°
2026-04-26 04:01 -33.76733 151.07233 9629 ft 290 kts 178°
2026-04-26 04:01 -33.78747 151.07269 9504 ft 289 kts 178°
2026-04-26 04:01 -33.80752 151.07302 9374 ft 288 kts 178°
2026-04-26 04:02 -33.82759 151.07334 9247 ft 288 kts 178°
2026-04-26 04:02 -33.84760 151.07364 9118 ft 287 kts 179°
2026-04-26 04:02 -33.86755 151.07397 9001 ft 287 kts 179°
2026-04-26 04:02 -33.88748 151.07430 8868 ft 286 kts 179°
2026-04-26 04:03 -33.90738 151.07461 8743 ft 286 kts 179°
2026-04-26 04:03 -33.92724 151.07491 8617 ft 285 kts 179°
2026-04-26 04:03 -33.94706 151.07522 8492 ft 285 kts 179°
2026-04-26 04:03 -33.96686 151.07553 8367 ft 284 kts 179°
2026-04-26 04:04 -33.98658 151.07585 8247 ft 284 kts 179°
2026-04-26 04:04 -34.00632 151.07617 8119 ft 283 kts 179°
2026-04-26 04:04 -34.02565 151.07646 7870 ft 280 kts 179°
2026-04-26 04:04 -34.04512 151.07674 7525 ft 280 kts 179°
2026-04-26 04:05 -34.06461 151.07707 7161 ft 280 kts 179°
2026-04-26 04:05 -34.08406 151.07846 6790 ft 280 kts 170°
2026-04-26 04:05 -34.10315 151.08328 6416 ft 281 kts 167°
2026-04-26 04:05 -34.12224 151.08825 6048 ft 281 kts 167°
2026-04-26 04:06 -34.14139 151.09320 5673 ft 281 kts 168°
2026-04-26 04:06 -34.16053 151.09815 5314 ft 281 kts 168°
2026-04-26 04:06 -34.17964 151.10309 5007 ft 279 kts 168°
2026-04-26 04:06 -34.19824 151.10794 4893 ft 268 kts 168°
2026-04-26 04:07 -34.21568 151.11431 4794 ft 257 kts 150°
2026-04-26 04:07 -34.22827 151.12851 4687 ft 243 kts 117°
2026-04-26 04:07 -34.23261 151.14721 4588 ft 226 kts 84°
2026-04-26 04:07 -34.22961 151.16511 4484 ft 211 kts 62°
2026-04-26 04:08 -34.22240 151.17994 4371 ft 200 kts 53°
2026-04-26 04:08 -34.21484 151.19364 4268 ft 194 kts 53°
2026-04-26 04:08 -34.20574 151.20519 4173 ft 189 kts 30°
2026-04-26 04:08 -34.19421 151.21275 4078 ft 188 kts 25°
2026-04-26 04:09 -34.18241 151.21955 3980 ft 188 kts 24°
2026-04-26 04:09 -34.17056 151.22616 3878 ft 187 kts 22°
2026-04-26 04:09 -34.15816 151.22999 3791 ft 184 kts
2026-04-26 04:09 -34.14567 151.22793 3608 ft 184 kts 348°
2026-04-26 04:10 -34.13323 151.22465 3384 ft 183 kts 348°
2026-04-26 04:10 -34.12079 151.22138 3144 ft 184 kts 349°
2026-04-26 04:10 -34.10825 151.21811 2899 ft 185 kts 348°
2026-04-26 04:10 -34.09571 151.21484 2662 ft 185 kts 349°
2026-04-26 04:11 -34.08316 151.21157 2420 ft 183 kts 349°
2026-04-26 04:11 -34.07110 151.20842 2196 ft 171 kts 349°
2026-04-26 04:11 -34.05975 151.20547 1948 ft 162 kts 349°
2026-04-26 04:11 -34.04903 151.20267 1700 ft 151 kts 349°
2026-04-26 04:12 -34.03939 151.20017 1522 ft 137 kts 349°
2026-04-26 04:12 -34.03023 151.19779 1344 ft 133 kts 350°
2026-04-26 04:12 -34.02108 151.19542 1170 ft 134 kts 350°
2026-04-26 04:12 -34.01202 151.19306 992 ft 133 kts 350°
2026-04-26 04:13 -34.00308 151.19074 817 ft 131 kts 351°
2026-04-26 04:13 -33.99412 151.18841 655 ft 132 kts 351°
2026-04-26 04:13 -33.98520 151.18610 486 ft 130 kts 352°
2026-04-26 04:13 -33.97628 151.18367 316 ft 131 kts 350°
2026-04-26 04:14 -33.96746 151.18134 135 ft 131 kts 354°
2026-04-26 04:14 -33.95870 151.17919 30 ft 118 kts 349°
2026-04-26 04:14 -33.95238 151.17756 29 ft 73 kts 346°
2026-04-26 04:14 -33.94844 151.17658 29 ft 42 kts 347°
2026-04-26 04:15 -33.94603 151.17655 29 ft 23 kts 15°
2026-04-26 04:15 -33.94475 151.17698 30 ft 15 kts 19°
2026-04-26 04:15 -33.94439 151.17713 30 ft 0 kts 18°
2026-04-26 04:19 -33.94438 151.17713 30 ft 1 kts 18°
2026-04-26 04:20 -33.94372 151.17736 30 ft 20 kts 10°
2026-04-26 04:20 -33.94219 151.17700 29 ft 24 kts 346°
2026-04-26 04:20 -33.94056 151.17652 28 ft 25 kts 348°
2026-04-26 04:20 -33.93945 151.17622 29 ft 13 kts 348°
2026-04-26 04:21 -33.93868 151.17657 29 ft 14 kts 67°
2026-04-26 04:21 -33.93815 151.17761 30 ft 16 kts 21°
2026-04-26 04:21 -33.93694 151.17797 30 ft 19 kts 13°
2026-04-26 04:21 -33.93559 151.17831 30 ft 14 kts
2026-04-26 04:22 -33.93531 151.17801 30 ft 6 kts 268°
2026-04-26 04:22 -33.93526 151.17776 30 ft 2 kts 282°
2026-04-26 04:22 -33.93524 151.17765 30 ft 0 kts 280°